Retour au catalogue

STARLINK-2695

ActifCommunicationsVLEO
NORAD 48644·PAYLOAD·🇺🇸 United States

Lancé May 26, 2021 depuis Cape Canaveral Space Force Station

Loading…

Prochains Passages (prochaines 24 heures)

TLE

FraisSource: CelesTrak SupGP

Époque: Sep 14, 2026, 20:24 UTC

1 48644C 21044G   26257.85048611 -.00030566  00000+0 -98293-3 0  2574
2 48644  53.1577 313.7358 0001267  76.6041 210.8097 15.31717231    15

Suivez STARLINK-2695 en temps réel avec AllMySat

Download on the App Store